Location: Table Mountain
(47.2500°N, 120.5778°W)
Time: 09:52:37
(UTC-07:00)

ISS - Pass Details

Date: 16 October 2017
Orbit: 401 x 408 km, 51.6° (Epoch: 19 October)

Event Time Altitude Azimuth Distance (km) Brightness Sun altitude
Rises 19:23:04 0° 282° (WNW) 2,318 1.8 -12.8°
Reaches altitude 10° 19:26:22 10° 246° (WSW) 1,455 0.1 -13.3°
Maximum altitude 19:27:25 11° 227° (SW) 1,382 -0.5 -13.5°
Drops below altitude 10° 19:28:29 10° 208° (SSW) 1,453 -0.7 -13.7°
Sets 19:31:46 0° 172° (S) 2,308 -0.1 -14.3°
